[[{"header":{"parameterUnit":"m.s-1","parameterCategory":1,"la1":30.2991,"la2":30.254,"lo1":-89.0895,"lo2":-89.0444,"dy":0.0017,"dx":0.0017,"nx":28,"ny":28,"refTime":"2025-09-17T09:00:00:Z","depth":0,"parameterNumber":2,"parameterNumberName":"U-component_of_WINDS"},"data":[0,0,0,0,0,0,0,0,0,0,0,0,0,0,0,0,0,0,0,0,0,0,0,0,0,0,0,0,0,0,0,0,0,0,0,0,0,0,0,0,0,0,0,0,0,0,0,0,0,0,0,0,0,0,0,0,0,0,-1.7013,-1.7013,0,-1.7001,-1.7001,-1.7001,-1.6941,-1.6939,-1.6938,-1.6936,-1.6926,-1.6927,-1.6928,0,0,0,0,0,0,0,0,0,0,0,0,0,-1.6985,-1.6986,-1.7013,-1.7013,-1.7013,-1.7001,-1.7001,-1.7001,-1.6941,-1.6939,-1.6937,-1.6936,-1.6925,-1.6927,-1.6928,0,0,0,0,0,0,0,0,0,0,0,0,0,-1.6988,-1.6986,-1.7013,-1.6981,-1.6978,-1.7001,-1.7001,-1.7001,-1.6941,-1.6939,-1.6937,-1.6935,-1.6925,-1.6927,-1.6928,-1.6981,0,0,-1.6933,-1.6934,0,0,0,0,0,0,0,0,-1.6988,-1.6989,-1.6986,-1.6983,-1.698,-1.697,-1.6987,-1.6994,-1.6942,-1.6955,-1.6936,-1.6934,-1.6942,-1.6942,-1.6945,-1.6981,-1.698,-1.6933,-1.6934,-1.6935,-1.6935,0,0,0,0,0,0,0,-1.6987,-1.6989,-1.7008,-1.6986,-1.6982,-1.6968,-1.6966,-1.6988,-1.6961,-1.6954,-1.695,-1.6949,-1.694,-1.6944,-1.6944,-1.698,-1.6933,-1.6935,-1.6935,-1.6936,-1.7061,-1.7063,0,0,0,0,0,0,-1.6992,-1.6989,-1.7009,-1.7008,-1.6979,-1.6971,-1.6968,-1.6976,-1.6961,-1.6956,-1.6951,-1.6946,-1.6942,-1.6943,-1.6944,-1.7006,-1.6935,-1.6936,-1.6937,-1.7058,-1.7061,-1.7064,0,0,0,0,0,0,-1.6991,-1.6994,-1.7009,-1.6997,-1.6998,-1.6973,-1.6982,-1.6977,-1.698,-1.6958,-1.6953,-1.6959,-1.694,-1.6941,-1.6973,-1.7005,-1.6937,-1.6938,-1.7056,-1.7059,-1.7063,-1.7131,0,0,0,0,0,0,-1.6991,-1.6994,-1.7013,-1.6998,-1.6999,-1.7038,-1.6984,-1.6978,-1.6982,-1.6976,-1.6965,-1.6961,-1.6939,-1.6971,-1.6974,-1.7006,-1.694,-1.7053,-1.7057,-1.7061,-1.7126,-1.7136,-1.7145,0,0,0,0,0,-1.699,-1.7033,-1.7015,-1.7017,-1.7023,-1.704,-1.704,-1.7014,-1.6985,-1.7005,-1.6992,-1.6961,-1.7001,-1.6974,-1.6978,-1.701,-1.7051,-1.7056,-1.7061,-1.7121,-1.7134,-1.7145,0,0,0,0,0,0,-1.7052,-1.703,-1.701,-1.7049,-1.7047,-1.703,-1.7053,-1.7028,-1.7034,-1.7028,-1.6995,-1.6993,-1.703,-1.7023,-1.6994,-1.7062,-1.7021,-1.7027,-1.7065,-1.7077,-1.7087,-1.7088,-1.6941,0,0,0,0,0,-1.7071,-1.7086,-1.7066,-1.7103,-1.7103,-1.7079,-1.7085,-1.7065,-1.7061,-1.706,-1.7049,-1.7047,-1.7059,-1.7067,-1.7077,-1.7124,-1.7122,-1.7149,-1.7158,-1.7167,-1.7173,-1.7199,-1.7211,-1.7081,-1.7081,-1.7081,0,0,-1.7109,-1.7099,-1.711,-1.7115,-1.7111,-1.7128,-1.7078,-1.7098,-1.7111,-1.7063,-1.7092,-1.7084,-1.708,-1.712,-1.7137,-1.7115,-1.7208,-1.7173,-1.718,-1.7182,-1.7205,-1.7218,-1.7229,-1.7085,-1.7084,-1.7084,0,0,-1.7187,-1.7181,-1.7211,-1.7208,-1.7203,-1.7187,-1.7194,-1.7181,-1.7174,-1.7202,-1.7167,-1.7183,-1.7204,-1.7203,-1.7205,-1.7285,-1.7258,-1.7289,-1.7341,-1.7367,-1.7377,-1.7386,-1.7416,-1.7427,-1.7295,-1.7295,-1.7295,0,-1.7236,-1.726,-1.723,-1.7253,-1.7257,-1.7214,-1.7246,-1.7245,-1.7243,-1.7247,-1.7223,-1.725,-1.7244,-1.7283,-1.7303,-1.7306,-1.7315,-1.729,-1.7378,-1.7386,-1.7394,-1.7422,-1.7434,-1.7299,-1.7299,-1.7298,-1.7298,0,-1.732,-1.7337,-1.7363,-1.7362,-1.7369,-1.7396,-1.7372,-1.7382,-1.7362,-1.7349,-1.7379,-1.7371,-1.7379,-1.7387,-1.7367,-1.7425,-1.7412,-1.7383,-1.7341,-1.7411,-1.7437,-1.7447,-1.7305,-1.7303,-1.7302,-1.7301,0,0,-1.7437,-1.7421,-1.7431,-1.7431,-1.7422,-1.7435,-1.7461,-1.7469,-1.7479,-1.748,-1.7502,-1.7521,-1.7495,-1.7498,-1.7478,-1.7501,-1.7566,-1.7469,-1.7469,-1.7489,-1.7631,-1.7653,-1.7666,-1.7548,-1.755,-1.7552,-1.7632,0,-1.7513,-1.7555,-1.753,-1.7577,-1.7594,-1.7555,-1.7577,-1.7575,-1.7564,-1.7577,-1.7565,-1.758,-1.7544,-1.7546,-1.7566,-1.7554,-1.7595,-1.7548,-1.7569,-1.757,-1.7572,-1.7679,-1.7702,-1.7778,-1.7642,-1.7643,-1.7644,0,-1.7607,-1.7612,-1.766,-1.765,-1.7656,-1.7677,-1.7683,-1.7696,-1.7693,-1.7684,-1.7688,-1.7663,-1.7688,-1.7647,-1.7683,-1.7651,-1.7659,-1.7655,-1.7657,-1.7658,-1.7612,-1.7685,-1.7801,-1.7813,-1.766,-1.7659,-1.7658,0,-1.7689,-1.7708,-1.7739,-1.774,-1.7729,-1.7745,-1.7741,-1.7736,-1.7743,-1.7749,-1.7753,-1.7762,-1.7767,-1.7775,-1.7753,-1.7725,-1.7793,-1.7749,-1.7787,-1.7787,-1.7803,-1.7802,-1.7924,-1.7807,-1.7806,-1.7806,-1.7806,0,-1.7776,-1.7808,-1.7776,-1.7796,-1.7831,-1.7802,-1.7838,-1.783,-1.7826,-1.7844,-1.7811,-1.7829,-1.7799,-1.7814,-1.7798,-1.7831,-1.7833,-1.7827,-1.7822,-1.7831,-1.7832,-1.7835,-1.783,-1.7809,-1.7808,-1.7808,-1.7807,0,-1.7874,-1.7853,-1.7886,-1.7873,-1.787,-1.7897,-1.7886,-1.7904,-1.7891,-1.7915,-1.7919,-1.7899,-1.7915,-1.7895,-1.7909,-1.7898,-1.7944,-1.7931,-1.7945,-1.7941,-1.7981,-1.7978,-1.8109,-1.8126,-1.7997,-1.7999,-1.8,0,-1.7931,-1.7955,-1.7945,-1.7954,-1.7953,-1.7969,-1.7976,-1.7949,-1.7958,-1.7958,-1.7977,-1.7991,-1.8,-1.8029,-1.8016,-1.8028,-1.8015,-1.8061,-1.8017,-1.8025,-1.8018,-1.8017,-1.802,-1.807,-1.8071,-1.8073,-1.8074,0,-1.8036,-1.8026,-1.8037,-1.8046,-1.8055,-1.8061,-1.8064,-1.8074,-1.8046,-1.8058,-1.8075,-1.8083,-1.8098,-1.8113,-1.8121,-1.8118,-1.8092,-1.8088,-1.8097,-1.8106,-1.8114,-1.8112,-1.797,-1.8085,-1.8084,-1.8083,-1.8082,-1.8082,-1.8116,-1.8136,-1.8132,-1.8147,-1.8146,-1.815,-1.8167,-1.8157,-1.817,-1.8181,-1.8164,-1.8186,-1.8184,-1.8192,-1.8193,-1.821,-1.819,-1.8204,-1.8207,-1.8211,-1.8218,-1.8111,-1.8211,-1.821,-1.821,-1.821,-1.821,0,-1.822,-1.8216,-1.823,-1.8236,-1.8247,-1.8222,-1.8224,-1.8236,-1.8255,-1.8256,-1.8266,-1.8287,-1.8301,-1.829,-1.8302,-1.8318,-1.8307,-1.8323,-1.8322,-1.8322,-1.8234,-1.8225,-1.8332,-1.8332,-1.8332,-1.8332,-1.8332,-1.8332,-1.8276,-1.8309,-1.8298,-1.833,-1.8326,-1.8347,-1.8351,-1.8355,-1.8355,-1.8379,-1.8391,-1.8384,-1.838,-1.8393,-1.8405,-1.8402,-1.8408,-1.8429,-1.8421,-1.834,-1.8328,-1.8316,-1.8308,-1.843,-1.843,-1.8508,-1.8508,-1.8509]},{"header":{"parameterUnit":"m.s-1","parameterCategory":1,"la1":30.2991,"la2":30.254,"lo1":-89.0895,"lo2":-89.0444,"dy":0.0017,"dx":0.0017,"nx":28,"ny":28,"refTime":"2025-09-17T09:00:00:Z","depth":0,"parameterNumber":3,"parameterNumberName":"V-component_of_WINDS"},"data":[0,0,0,0,0,0,0,0,0,0,0,0,0,0,0,0,0,0,0,0,0,0,0,0,0,0,0,0,0,0,0,0,0,0,0,0,0,0,0,0,0,0,0,0,0,0,0,0,0,0,0,0,0,0,0,0,0,0,1.5393,1.5393,0,1.5411,1.5411,1.5412,1.5438,1.5438,1.5438,1.5439,1.5455,1.5455,1.5455,0,0,0,0,0,0,0,0,0,0,0,0,0,1.5378,1.5378,1.5393,1.5393,1.5394,1.5411,1.5411,1.5412,1.5437,1.5438,1.5439,1.5439,1.5455,1.5455,1.5455,0,0,0,0,0,0,0,0,0,0,0,0,0,1.5389,1.5378,1.5393,1.5409,1.541,1.5411,1.5411,1.5412,1.5437,1.5438,1.5439,1.5439,1.5455,1.5455,1.5455,1.5442,0,0,1.5455,1.5455,0,0,0,0,0,0,0,0,1.5388,1.5389,1.5406,1.5407,1.5409,1.5423,1.5412,1.5422,1.5437,1.5427,1.5439,1.544,1.5444,1.5445,1.5447,1.5443,1.5443,1.5455,1.5455,1.5455,1.5455,0,0,0,0,0,0,0,1.5387,1.5389,1.54,1.5406,1.5408,1.5414,1.5416,1.5414,1.5431,1.5428,1.543,1.5432,1.5445,1.5447,1.5447,1.5444,1.5455,1.5455,1.5455,1.5455,1.5428,1.5427,0,0,0,0,0,0,1.5385,1.5388,1.54,1.5401,1.54,1.5413,1.5416,1.5418,1.5431,1.5434,1.5431,1.5433,1.5446,1.5447,1.5448,1.5432,1.5455,1.5455,1.5455,1.5428,1.5427,1.5427,0,0,0,0,0,0,1.5384,1.5385,1.5399,1.5395,1.5397,1.5413,1.5415,1.5418,1.542,1.5434,1.5437,1.543,1.5447,1.5448,1.5443,1.5432,1.5455,1.5455,1.5429,1.5428,1.5427,1.54,0,0,0,0,0,0,1.5384,1.5385,1.5381,1.5395,1.5397,1.5394,1.5414,1.5418,1.542,1.5422,1.5434,1.5436,1.5447,1.5443,1.5443,1.5433,1.5455,1.543,1.5429,1.5427,1.5401,1.5398,1.5394,0,0,0,0,0,1.5383,1.5373,1.5381,1.5382,1.5392,1.5394,1.5395,1.5409,1.5419,1.5414,1.5423,1.5436,1.5434,1.5442,1.5442,1.5432,1.5431,1.5429,1.5427,1.5403,1.5398,1.5395,0,0,0,0,0,0,1.5357,1.5375,1.5384,1.5378,1.5384,1.5398,1.5393,1.5404,1.5407,1.5409,1.5426,1.5428,1.542,1.5426,1.5435,1.5419,1.5434,1.5433,1.5415,1.5411,1.5408,1.5406,1.5455,0,0,0,0,0,1.535,1.5351,1.5366,1.5359,1.5362,1.5377,1.5378,1.5388,1.5395,1.5398,1.5406,1.5412,1.5412,1.5412,1.5414,1.5403,1.5405,1.5396,1.5393,1.539,1.5387,1.538,1.5376,1.5421,1.5421,1.5421,0,0,1.5337,1.5347,1.5346,1.5354,1.536,1.5359,1.5379,1.5377,1.5376,1.5397,1.5393,1.5399,1.5406,1.5398,1.5395,1.5402,1.5375,1.5387,1.5385,1.5384,1.5378,1.5373,1.5369,1.542,1.542,1.542,0,0,1.5311,1.532,1.5314,1.5319,1.5329,1.5338,1.5337,1.5349,1.5354,1.5351,1.5366,1.5364,1.5366,1.537,1.5372,1.5347,1.5357,1.5347,1.5328,1.532,1.5316,1.5313,1.5302,1.5298,1.5345,1.5345,1.5345,0,1.5293,1.5293,1.5309,1.5306,1.5308,1.5328,1.5321,1.5326,1.5335,1.5335,1.5344,1.5345,1.5352,1.5343,1.5337,1.5339,1.5336,1.5345,1.5316,1.5313,1.531,1.53,1.5296,1.5343,1.5343,1.5344,1.5344,0,1.5269,1.5268,1.5262,1.527,1.5272,1.5268,1.5282,1.5282,1.5292,1.53,1.5295,1.5303,1.5306,1.5305,1.5315,1.5297,1.5302,1.5313,1.5328,1.5304,1.5294,1.5291,1.5341,1.5342,1.5342,1.5342,0,0,1.5226,1.5244,1.5241,1.5244,1.5255,1.5255,1.525,1.5253,1.5252,1.5257,1.5252,1.5253,1.5263,1.5265,1.5276,1.5269,1.5246,1.5281,1.5282,1.5273,1.5225,1.5215,1.521,1.5254,1.5254,1.5253,1.5224,0,1.5201,1.5195,1.5209,1.5199,1.5198,1.5216,1.5212,1.5217,1.5225,1.5224,1.5233,1.5232,1.5247,1.5248,1.5242,1.525,1.5237,1.5253,1.5248,1.5248,1.5244,1.5206,1.5195,1.5167,1.5221,1.522,1.522,0,1.5172,1.5175,1.5165,1.5175,1.5175,1.5171,1.5174,1.5174,1.518,1.5186,1.5188,1.52,1.5195,1.5211,1.5203,1.5214,1.5213,1.5216,1.5215,1.5214,1.5231,1.5201,1.5159,1.5154,1.5214,1.5215,1.5215,0,1.5139,1.5142,1.5135,1.5138,1.515,1.5147,1.5152,1.5159,1.5159,1.5162,1.5162,1.5164,1.5164,1.5165,1.5177,1.5187,1.5166,1.5184,1.5169,1.5169,1.5162,1.5162,1.5117,1.5165,1.5165,1.5165,1.5166,0,1.5108,1.5101,1.5121,1.5116,1.5108,1.5124,1.5114,1.5121,1.5127,1.5124,1.514,1.5136,1.5153,1.515,1.516,1.515,1.5151,1.5154,1.5156,1.5151,1.5151,1.5149,1.5151,1.5164,1.5165,1.5165,1.5165,0,1.507,1.5083,1.5077,1.509,1.5093,1.5085,1.5095,1.5091,1.51,1.5095,1.5095,1.5108,1.5106,1.5118,1.5118,1.5124,1.5109,1.5116,1.5107,1.5108,1.5092,1.5093,1.5043,1.5036,1.5091,1.509,1.509,0,1.5049,1.5043,1.5055,1.5054,1.5058,1.5056,1.5057,1.5072,1.5072,1.5078,1.5073,1.5072,1.5072,1.5067,1.5076,1.5076,1.5081,1.5064,1.5081,1.5075,1.5078,1.5077,1.5075,1.5059,1.5058,1.5058,1.5058,0,1.5009,1.5015,1.5016,1.5018,1.5018,1.502,1.5024,1.5022,1.5038,1.5037,1.5035,1.5035,1.5034,1.5033,1.5034,1.5038,1.5049,1.5052,1.5048,1.5042,1.5036,1.5037,1.5095,1.5053,1.5053,1.5054,1.5054,1.5054,1.4977,1.4972,1.4979,1.4978,1.4982,1.4985,1.4981,1.4989,1.4988,1.4989,1.4999,1.4994,1.4999,1.5002,1.5005,1.5001,1.5009,1.5004,1.5002,1.5,1.4996,1.5039,1.5002,1.5002,1.5002,1.5002,1.5002,0,1.4935,1.4941,1.494,1.4944,1.4943,1.4956,1.496,1.4958,1.4954,1.4958,1.4958,1.4954,1.4953,1.4961,1.496,1.4955,1.496,1.4954,1.4953,1.4953,1.4991,1.4993,1.495,1.495,1.495,1.495,1.495,1.495,1.4913,1.4905,1.4912,1.4906,1.4911,1.4908,1.4908,1.491,1.4913,1.4909,1.4908,1.4914,1.4919,1.4919,1.4917,1.4919,1.4917,1.4908,1.4912,1.4946,1.4951,1.4956,1.4958,1.4908,1.4908,1.4875,1.4875,1.4875]}]]